TimePDT,TemperatureF,Dew PointF,Humidity,Sea Level PressureIn,VisibilityMPH,Wind Direction,Wind SpeedMPH,Gust SpeedMPH,PrecipitationIn,Events,Conditions,WindDirDegrees,DateUTC
12:15 AM,54.0,30.2,40,30.04,10.0,Calm,Calm,-,N/A,,Clear,0,2013-10-07 07:15:00
12:35 AM,50.5,31.1,47,30.04,10.0,Calm,Calm,-,N/A,,Clear,0,2013-10-07 07:35:00
12:55 AM,45.5,32.0,59,30.04,10.0,East,8.1,-,N/A,,Clear,90,2013-10-07 07:55:00
1:15 AM,47.8,31.6,53,30.04,10.0,ESE,10.4,-,N/A,,Clear,120,2013-10-07 08:15:00
1:35 AM,46.8,31.3,55,30.05,10.0,ESE,5.8,-,N/A,,Clear,120,2013-10-07 08:35:00
1:55 AM,47.1,31.5,55,30.04,10.0,Calm,Calm,-,N/A,,Clear,0,2013-10-07 08:55:00
2:15 AM,48.2,31.1,52,30.04,10.0,Calm,Calm,-,N/A,,Clear,0,2013-10-07 09:15:00
2:35 AM,44.1,31.8,62,30.04,10.0,ESE,10.4,-,N/A,,Clear,120,2013-10-07 09:35:00
2:55 AM,44.6,31.5,60,30.04,10.0,ESE,8.1,-,N/A,,Clear,110,2013-10-07 09:55:00
3:15 AM,43.3,31.6,63,30.03,10.0,ESE,5.8,-,N/A,,Clear,120,2013-10-07 10:15:00
3:35 AM,43.5,31.6,63,30.03,10.0,SE,9.2,-,N/A,,Clear,130,2013-10-07 10:35:00
3:55 AM,46.8,31.6,56,30.03,10.0,SE,16.1,19.6,N/A,,Clear,140,2013-10-07 10:55:00
4:15 AM,45.1,31.6,59,30.03,10.0,ESE,10.4,-,N/A,,Clear,120,2013-10-07 11:15:00
4:35 AM,46.4,31.6,56,30.03,10.0,SE,9.2,-,N/A,,Clear,130,2013-10-07 11:35:00
4:55 AM,45.5,31.8,59,30.02,10.0,SE,12.7,-,N/A,,Clear,130,2013-10-07 11:55:00
5:15 AM,45.1,31.8,60,30.01,10.0,ESE,11.5,-,N/A,,Clear,110,2013-10-07 12:15:00
5:35 AM,43.3,32.0,64,30.02,10.0,ESE,11.5,-,N/A,,Clear,110,2013-10-07 12:35:00
5:55 AM,43.2,32.0,65,30.01,10.0,East,12.7,-,N/A,,Clear,80,2013-10-07 12:55:00
6:15 AM,43.9,32.0,63,30.01,10.0,ESE,11.5,-,N/A,,Clear,110,2013-10-07 13:15:00
6:35 AM,43.7,32.0,63,30.01,10.0,ESE,9.2,-,N/A,,Clear,110,2013-10-07 13:35:00
6:55 AM,45.0,32.0,60,30.01,10.0,East,10.4,-,N/A,,Clear,100,2013-10-07 13:55:00
7:15 AM,45.0,32.0,60,30.01,10.0,ESE,10.4,-,N/A,,Clear,110,2013-10-07 14:15:00
7:35 AM,45.5,32.2,60,30.00,10.0,ESE,11.5,-,N/A,,Clear,110,2013-10-07 14:35:00
7:55 AM,45.9,32.0,58,30.00,10.0,East,8.1,-,N/A,,Clear,100,2013-10-07 14:55:00
8:15 AM,46.4,32.5,59,30.01,10.0,ESE,9.2,-,N/A,,Clear,120,2013-10-07 15:15:00
8:35 AM,47.1,32.7,57,30.00,10.0,ENE,5.8,-,N/A,,Clear,70,2013-10-07 15:35:00
8:55 AM,48.7,33.1,55,30.00,10.0,East,4.6,-,N/A,,Clear,90,2013-10-07 15:55:00
9:15 AM,52.0,32.0,47,30.01,10.0,Calm,Calm,-,N/A,,Clear,0,2013-10-07 16:15:00
9:35 AM,52.5,33.1,48,30.01,10.0,South,5.8,-,N/A,,Scattered Clouds,180,2013-10-07 16:35:00
9:55 AM,58.6,24.1,27,30.00,10.0,SSW,16.1,21.9,N/A,,Mostly Cloudy,200,2013-10-07 16:55:00
10:15 AM,59.4,25.5,27,29.99,10.0,SSW,13.8,25.3,N/A,,Mostly Cloudy,200,2013-10-07 17:15:00
10:35 AM,59.9,23.9,25,29.99,10.0,SSW,15.0,20.7,N/A,,Mostly Cloudy,200,2013-10-07 17:35:00
10:55 AM,60.1,27.3,29,29.99,10.0,WNW,9.2,-,N/A,,Scattered Clouds,290,2013-10-07 17:55:00
11:15 AM,57.2,31.5,38,29.99,10.0,WNW,6.9,-,N/A,,Clear,290,2013-10-07 18:15:00
11:35 AM,62.2,28.9,28,29.98,10.0,WSW,15.0,20.7,N/A,,Clear,240,2013-10-07 18:35:00
11:55 AM,62.2,26.1,25,29.98,10.0,WSW,13.8,21.9,N/A,,Clear,240,2013-10-07 18:55:00
12:15 PM,64.2,26.6,24,29.97,10.0,SW,12.7,19.6,N/A,,Clear,230,2013-10-07 19:15:00
12:35 PM,65.5,25.9,22,29.97,10.0,SW,15.0,-,N/A,,Clear,230,2013-10-07 19:35:00
12:55 PM,64.8,26.4,23,29.97,10.0,WNW,13.8,20.7,N/A,,Clear,290,2013-10-07 19:55:00
1:15 PM,63.3,28.0,26,29.96,10.0,West,13.8,21.9,N/A,,Clear,280,2013-10-07 20:15:00
1:35 PM,62.4,27.9,27,29.96,10.0,WNW,17.3,24.2,N/A,,Clear,290,2013-10-07 20:35:00
1:55 PM,62.4,27.9,27,29.96,10.0,WNW,17.3,-,N/A,,Clear,290,2013-10-07 20:55:00
2:15 PM,63.1,28.0,27,29.97,10.0,WNW,17.3,-,N/A,,Scattered Clouds,290,2013-10-07 21:15:00
2:35 PM,62.4,29.3,29,29.97,10.0,WNW,17.3,21.9,N/A,,Scattered Clouds,290,2013-10-07 21:35:00
2:55 PM,59.7,30.2,33,29.98,10.0,West,18.4,24.2,N/A,,Scattered Clouds,270,2013-10-07 21:55:00
3:15 PM,58.6,31.5,36,29.98,10.0,West,20.7,-,N/A,,Scattered Clouds,280,2013-10-07 22:15:00
3:35 PM,59.2,35.4,41,29.98,10.0,West,19.6,-,N/A,,Scattered Clouds,280,2013-10-07 22:35:00
3:55 PM,56.5,37.4,49,29.99,10.0,West,23.0,28.8,N/A,,Mostly Cloudy,280,2013-10-07 22:55:00
4:15 PM,56.8,37.8,49,29.99,10.0,West,21.9,29.9,N/A,,Mostly Cloudy,280,2013-10-07 23:15:00
4:35 PM,56.3,38.5,51,30.00,10.0,West,20.7,26.5,N/A,,Mostly Cloudy,280,2013-10-07 23:35:00
4:55 PM,54.3,38.7,55,30.01,10.0,West,17.3,24.2,N/A,,Mostly Cloudy,270,2013-10-07 23:55:00
5:15 PM,54.9,38.3,54,30.01,10.0,WSW,15.0,23.0,N/A,,Mostly Cloudy,250,2013-10-08 00:15:00
5:35 PM,54.0,37.4,54,30.01,10.0,WSW,13.8,-,N/A,,Mostly Cloudy,250,2013-10-08 00:35:00
5:55 PM,51.8,36.9,57,30.01,10.0,West,10.4,-,N/A,,Scattered Clouds,260,2013-10-08 00:55:00
6:15 PM,50.2,37.0,61,30.02,10.0,West,10.4,-,N/A,,Clear,260,2013-10-08 01:15:00
6:35 PM,50.0,37.4,62,30.02,10.0,WSW,10.4,-,N/A,,Scattered Clouds,250,2013-10-08 01:35:00
6:55 PM,49.6,37.2,62,30.02,10.0,West,8.1,-,N/A,,Mostly Cloudy,270,2013-10-08 01:55:00
7:15 PM,50.5,37.6,61,30.03,10.0,NW,10.4,-,N/A,,Mostly Cloudy,310,2013-10-08 02:15:00
7:35 PM,49.3,37.0,63,30.03,10.0,WNW,8.1,-,N/A,,Mostly Cloudy,300,2013-10-08 02:35:00
7:55 PM,48.2,37.4,66,30.03,10.0,WNW,6.9,-,N/A,,Mostly Cloudy,300,2013-10-08 02:55:00
8:15 PM,47.3,35.8,64,30.03,10.0,WNW,5.8,-,N/A,,Scattered Clouds,290,2013-10-08 03:15:00
8:35 PM,47.1,37.6,69,30.04,10.0,West,4.6,-,N/A,,Mostly Cloudy,260,2013-10-08 03:35:00
8:55 PM,46.4,36.9,69,30.04,10.0,WSW,5.8,-,N/A,,Mostly Cloudy,250,2013-10-08 03:55:00
9:15 PM,45.5,36.9,72,30.05,10.0,West,5.8,-,N/A,,Mostly Cloudy,280,2013-10-08 04:15:00
9:35 PM,46.6,36.5,68,30.05,10.0,West,5.8,-,N/A,,Overcast,280,2013-10-08 04:35:00
9:55 PM,46.2,35.6,66,30.05,10.0,WNW,5.8,-,N/A,,Overcast,300,2013-10-08 04:55:00
10:15 PM,45.7,35.6,68,30.05,10.0,West,8.1,-,N/A,,Overcast,270,2013-10-08 05:15:00
10:35 PM,45.5,35.2,67,30.05,10.0,West,6.9,-,N/A,,Overcast,270,2013-10-08 05:35:00
10:55 PM,43.7,34.7,71,30.06,10.0,Calm,Calm,-,N/A,,Scattered Clouds,0,2013-10-08 05:55:00
11:15 PM,41.7,34.7,76,30.06,10.0,Calm,Calm,-,N/A,,Mostly Cloudy,0,2013-10-08 06:15:00
11:35 PM,43.0,35.1,74,30.05,10.0,WSW,5.8,-,N/A,,Overcast,250,2013-10-08 06:35:00
11:55 PM,42.4,35.1,75,30.05,10.0,West,5.8,-,N/A,,Overcast,260,2013-10-08 06:55:00